Location: Casteau
(50.5142°N, 4.0161°E)
Time: 15:02:32
(UTC+00:00)

CENTAUR R/B - Pass Details

Date: 18 September 2020
Orbit: 755 x 1433 km, 63.4° (Epoch: 02 October)

Event Time Altitude Azimuth Distance (km) Brightness Sun altitude
Rises 19:22:27 0° 314° (NW) 4,039 7.0 -15.1°
Reaches altitude 10° 19:25:03 10° 317° (NW) 3,163 6.2 -15.5°
Maximum altitude 19:32:52 70° 41° (NE) 1,411 3.2 -16.6°
Enters shadow 19:38:32 24° 121° (ESE) 2,552 4.0 -17.5°
